El Centro, CA

12:04 PM PDT on June 23, 2017 (GMT -0700)
El Centro Naval Air Facility

Weather History for KNJK - January, 2012

Change the Weather History Date:

Monday, January 23, 2012

  Actual Average Record
Temperature  
Mean Temperature 54 °F -  
Max Temperature 69 °F 69 °F 80 °F (1997)
Min Temperature 39 °F 46 °F 35 °F (2007)
Degree Days  
Heating Degree Days 11    
Growing Degree Days 4 (Base 50)    
Moisture  
Dew Point 37 °F    
Average Humidity 52    
Maximum Humidity 70    
Minimum Humidity 20    
Precipitation  
Precipitation 0.00 in - - ()
Sea Level Pressure  
Sea Level Pressure 29.99 in    
Wind  
Wind Speed 8 mph (WSW)    
Max Wind Speed 24 mph    
Max Gust Speed -    
Visibility 10 miles    
Events Rain    
Averages and records for this station are not official NWS values.
T = Trace of Precipitation, MM = Missing Value Source: NWS Daily Summary

Daily Weather History Graph

Daily Weather History Graph

Search for Another Location

Airport or City:

Trip Planner

Search our weather history database for the weather conditions in past years. The results will help you decide how hot, cold, wet, or windy it might be!

Date:

Astronomy

Jan. 23, 2012 Rise Set
Actual Time 6:42 AM PST 5:06 PM PST
Civil Twilight 6:16 AM PST 5:32 PM PST
Nautical Twilight 5:46 AM PST 6:02 PM PST
Astronomical Twilight 5:17 AM PST 6:32 PM PST
Moon 6:44 AM PST 5:53 PM PST
Length of Visible Light 11h 16m
Length of Day
10h 23m
New Moon, 0% of the Moon is Illuminated
Jan 23
New Moon
Jan 30
First Quarter
Feb 7
Full
Feb 14
Last Quarter
Feb 21
New

Hourly Weather History & Observations

Time (PST) Temp. Windchill Dew Point Humidity Pressure Visibility Wind Dir Wind Speed Gust Speed Precip Events Conditions
12:56 AM 44.1 °F - 33.1 °F 65% 30.12 in 10.0 mi North - - N/A   Partly Cloudy
1:56 AM 43.0 °F - 28.0 °F 56% 30.12 in 10.0 mi North - - N/A   Partly Cloudy
2:56 AM 43.0 °F - 30.9 °F 62% 30.08 in 10.0 mi North - - N/A   Clear
3:56 AM 41.0 °F - 30.0 °F 65% 30.06 in 10.0 mi North - - N/A   Clear
4:56 AM 41.0 °F - 28.0 °F 60% 30.06 in 10.0 mi North - - N/A   Clear
5:56 AM 42.1 °F - 30.0 °F 62% 30.05 in 10.0 mi Calm Calm - N/A   Partly Cloudy
6:56 AM 39.9 °F - 30.9 °F 70% 30.05 in 10.0 mi Calm Calm - N/A   Mostly Cloudy
7:56 AM 45.0 °F 43.5 °F 32.0 °F 60% 30.05 in 10.0 mi Variable 3.5 mph - N/A   Mostly Cloudy
8:56 AM 54.0 °F - 36.0 °F 51% 30.06 in 10.0 mi Variable 3.5 mph - N/A   Mostly Cloudy
9:56 AM 59.0 °F - 39.9 °F 49% 30.05 in 10.0 mi Calm Calm - N/A   Mostly Cloudy
10:56 AM 69.1 °F - 26.1 °F 20% 30.01 in 10.0 mi WSW 21.9 mph - N/A   Mostly Cloudy
11:56 AM 66.9 °F - 28.9 °F 24% 29.98 in 10.0 mi West 24.2 mph - N/A   Mostly Cloudy
12:49 PM 66.2 °F - 35.6 °F 32% 29.91 in 10.0 mi WSW 19.6 mph - 0.00 in Rain Light Rain
12:56 PM 66.2 °F - 37.4 °F 35% 29.96 in 10.0 mi WSW 21.9 mph - N/A   Mostly Cloudy
1:56 PM 69.1 °F - 42.1 °F 38% 29.92 in 10.0 mi West 20.7 mph - N/A   Mostly Cloudy
2:56 PM 69.1 °F - 46.0 °F 44% 29.90 in 10.0 mi WSW 19.6 mph - N/A   Mostly Cloudy
3:56 PM 66.0 °F - 46.0 °F 48% 29.91 in 10.0 mi SW 11.5 mph - N/A   Scattered Clouds
4:56 PM 63.0 °F - 46.9 °F 56% 29.92 in 10.0 mi West 17.3 mph - N/A   Mostly Cloudy
5:24 PM - - - N/A% - - North - - N/A   Unknown
5:56 PM 63.0 °F - 43.0 °F 48% 29.92 in 10.0 mi WSW 15.0 mph - N/A   Scattered Clouds
6:56 PM 59.0 °F - 42.1 °F 53% 29.93 in 10.0 mi WSW 9.2 mph - N/A   Partly Cloudy
7:56 PM 57.0 °F - 39.9 °F 53% 29.94 in 10.0 mi West 3.5 mph - N/A   Partly Cloudy
8:56 PM 55.4 °F - 39.2 °F 54% 29.90 in 10.0 mi Variable 3.5 mph - N/A   Partly Cloudy
9:56 PM 54.0 °F - 41.0 °F 62% 29.97 in 10.0 mi Variable 3.5 mph - N/A   Partly Cloudy
10:56 PM 51.1 °F - 41.0 °F 68% 29.99 in 10.0 mi Variable 6.9 mph - N/A   Partly Cloudy
11:56 PM 51.1 °F - 41.0 °F 68% 29.99 in 10.0 mi North - - N/A   Clear